Lexington Weather

Lexington, Massachusetts, USA

71°F
9/22/2021 2:19pm 
  • Lexington Conditions: Light rain, Mist, Overcast
  • Temperature: 71.4°F / 21.9°CColder 3.8°F than last hour.
  • Dew Point: 68.9°FIncreased 0.4°Fsince last hour.
  • Relative Humidity: 92%Increased 12.0% since last hour.
  • Wind: Wind from W W 8 mph, 10-min avg: 3 mph, gust: 10 mph
  • Barometer: 30.08 inFalling 0.02  inHg/hr Falling Slowly
  • Visibility: 2 miles
  • Rain Today: 0.00 in
  •   

Regional Weather Roundup
for Boston / Norton, MA

        
000
ASUS41 KBOX 160604
RWRBOX

REGIONAL WEATHER ROUNDUP
NATIONAL WEATHER SERVICE BOSTON/NORTON MA
200 AM EDT THU SEP 16 2021

NOTE:  "FAIR" INDICATES FEW OR NO CLOUDS BELOW 12,000 FEET WITH NO 
SIGNIFICANT WEATHER AND/OR OBSTRUCTIONS TO VISIBILITY.

MAZALL-160700-
EASTERN MASSACHUSETTS
  
CITY           SKY/WX    TMP DP  RH WIND       PRES   REMARKS
BOSTON         CLOUDY    75  65  70 NW10      30.07R                  
6HR MIN TEMP:  73; 6HR MAX TEMP:  78;                                

BEVERLY        CLOUDY    70  34  26 NW8       30.07R                  
LAWRENCE       CLOUDY    69  67  93 CALM      30.09R                  
BEDFORD        MOCLDY    67  67 100 CALM      30.06S                  
BLUE HILL      NOT AVBL                                               
NORWOOD        MOCLDY    69  67  93 CALM      30.07R                  
MARSHFIELD     CLOUDY    72  70  94 CALM      30.06R                  
PLYMOUTH       PTCLDY    72  69  90 SW8       30.07S                  
TAUNTON        CLOUDY    72  69  90 CALM      30.06S                  
NEW BEDFORD    CLOUDY    73  71  93 SW7       30.06F                  
$$

MAZALL-160700-
CAPE COD AND THE ISLANDS
  
CITY           SKY/WX    TMP DP  RH WIND       PRES   REMARKS
FALMOUTH       MOCLDY    72  72 100 SW9       30.08F                  
HYANNIS        CLOUDY    73  72  96 SW9       30.07S                  
CHATHAM        CLOUDY    73  71  93 VRB6      30.09S                  
PROVINCETOWN   CLOUDY    71  70  96 SW10      30.07S                  
NANTUCKET      CLEAR     72  70  93 S9        30.10R                  
MARTHAS VNYRD  PTCLDY    71  71 100 SW3       30.08F                  
$$
 
MAZALL-160700-
CENTRAL AND WESTERN MASSACHUSETTS
  
CITY           SKY/WX    TMP DP  RH WIND       PRES   REMARKS
WORCESTER      CLOUDY    67  64  90 W6        30.12R                  
6HR MIN TEMP:  66; 6HR MAX TEMP:  74; 6HR PCP: TRACE;                

FITCHBURG      LGT RAIN  68  65  90 NW3       30.09S                  
ORANGE         LGT RAIN  67  65  93 CALM      30.12R                  
SPRINGFIELD    CLOUDY    66  64  93 NE7       30.09R                  
WESTFIELD      MOCLDY    68  67  96 NE5       30.09R                  
NORTH ADAMS    LGT RAIN  62  60  93 N3        30.10F                  
PITTSFIELD     LGT RAIN  61  59  93 W6        30.13S                  
$$
 
RIZALL-160700-
RHODE ISLAND
  
CITY           SKY/WX    TMP DP  RH WIND       PRES   REMARKS
PROVIDENCE     CLOUDY    73  71  93 CALM      30.07S                  
6HR MIN TEMP:  71; 6HR MAX TEMP:  75;                                

NEWPORT        CLOUDY    72  71  97 SW6       30.07S                  
BLOCK ISLAND   PTCLDY    70  68  93 W7        30.08F                  
SMITHFIELD     CLOUDY    69  69 100 CALM      30.08S                  
WESTERLY       CLOUDY    71  71 100 S7        30.07S                  
$$
 
CTZALL-160700-
CONNECTICUT
  
CITY           SKY/WX    TMP DP  RH WIND       PRES   REMARKS
BRADLEY INTL   CLOUDY    69  65  86 N8        30.08R                  
6HR MIN TEMP:  68; 6HR MAX TEMP:  78; 6HR PCP: TRACE;                

HARTFORD       CLOUDY    71  66  84 N5        30.07R                  
BRIDGEPORT     PTCLDY    73  65  75 N5        30.06R                  
DANBURY        PTCLDY    69  65  86 CALM      30.10R                  
GROTON         CLOUDY    73  71  93 S9        30.06R                  
NEW HAVEN      PTCLDY    73  68  84 N6        30.06R                  
CHESTER        CLOUDY    72  72 100 CALM      30.08R                  
MERIDEN        MOCLDY    68  65  90 CALM      30.07R                  
WILLIMANTIC    MOCLDY    68  67  96 N3        30.08R                  
OXFORD         CLOUDY    67  65  93 CALM      30.10S                  
$$

MEZ002-015-021-024-NHZ003-005-008-011-012-014-VTZ005-008-160700-
NORTHERN NEW ENGLAND
  
CITY           SKY/WX    TMP DP  RH WIND       PRES   REMARKS
PORTLAND ME    CLOUDY    67  66  97 CALM      30.06R                  
6HR MIN TEMP:  66; 6HR MAX TEMP:  67; 6HR PCP:  0.03;                

BANGOR ME      LGT RAIN  65  64  97 W5        30.05R                  
CONCORD NH     NOT AVBL                                               
MANCHESTER NH  LGT RAIN  69  64  84 NW5       30.06S                  
NASHUA NH      LGT RAIN  68  68 100 W5        30.09R                  
PORTSMOUTH NH  CLOUDY    68  66  94 W3        30.09R                  
JAFFREY NH     LGT RAIN  65  65 100 CALM      30.11S                  
KEENE NH       RAIN      65  65 100 CALM      30.11R                  
BURLINGTON VT  CLEAR     59  57  93 CALM      30.13S                  
MT. WASHINGTON DRZL/FOG  45  45 100 W33         N/A  VSB 0            
$$

NYZ052-076-160700-
EASTERN NEW YORK
  
CITY           SKY/WX    TMP DP  RH WIND       PRES   REMARKS
ALBANY         LGT RAIN  60  60 100 S3        30.11S                  
6HR MIN TEMP:  60; 6HR MAX TEMP:  65; 6HR PCP:  0.28;                

NEW YORK CITY  CLOUDY    75  65  70 NE12      30.03F                  
6HR MIN TEMP:  75; 6HR MAX TEMP:  81;                                

$$
 
ANZALL-160700-
MARINE OBSERVATIONS
  
STATION/POSITION TIME  TEMP    WIND        PRES    VSBY  WAVE
                       AIR SEA DIR/SP/G                  HT/PER
                 (UTC) (F)     (DEG/KT/KT) (MB)    (MI)  (FT/S)
BOSTON BUOY      0540      65  170/  2/  2 1018.5R
BUZZARDS BAY     0500          250/ 11/ 11 1019.8R
NANTUCKET SOUND  0540   74 72  210/ 12/ 14 1018.6R
MASS BAY-STELLWA 0504   66     250/  2/  4 1017.3R  1 7/8  1/ 5
ISLE OF SHOALS   0500   69     270/ 10/ 10 1016.7R
S OF BLOCK IS    0526      69                N/A           4/ 6
$$

......................KEY.........................
  SKY/WX - SKY CONDITION/PRESENT WEATHER
  TMP    - TEMPERATURE IN FAHRENHEIT
  DWPT   - DEWPOINT IN FAHRENHEIT
  RH     - RELATIVE HUMIDITY IN PERCENT
  WIND   - DIRECTION AND SPEED IN MPH
  PRES   - MEAN SEA LEVEL PRESSURE IN INCHES OF HG
  WCI    - WIND CHILL INDEX
  VSB    - VISIBILITY IN MILES
  HX     - HEAT INDEX
  TC     - TEMPERATURE IN CELSIUS
  VRB    - VARIABLE WIND DIRECTION
  N/A    - NOT AVAILABLE
  
      

Other recent Regional Weather Roundups

Wed Sep 22, 2:04pm

Wed Sep 22, 1:04pm

Wed Sep 22, 12:05pm

Wed Sep 22, 11:04am

Wed Sep 22, 10:04am

Wed Sep 22, 9:04am

Wed Sep 22, 8:04am

Wed Sep 22, 7:04am

Wed Sep 22, 6:04am

Wed Sep 22, 5:04am

Wed Sep 22, 4:04am

Wed Sep 22, 3:04am

Wed Sep 22, 2:04am

Wed Sep 22, 1:04am

Wed Sep 22, 12:04am

Tue Sep 21, 11:04pm

Tue Sep 21, 10:04pm

Tue Sep 21, 9:04pm

Tue Sep 21, 8:04pm

Tue Sep 21, 7:04pm

Tue Sep 21, 6:04pm

Tue Sep 21, 5:04pm

Tue Sep 21, 4:04pm

Tue Sep 21, 3:04pm

Tue Sep 21, 2:04pm

Tue Sep 21, 1:04pm

Tue Sep 21, 12:04pm

Tue Sep 21, 11:04am

Tue Sep 21, 10:04am

Tue Sep 21, 9:04am

Tue Sep 21, 8:04am

Tue Sep 21, 7:04am

Tue Sep 21, 6:04am

Tue Sep 21, 5:04am

Tue Sep 21, 4:04am

Tue Sep 21, 3:04am

Tue Sep 21, 2:04am

Tue Sep 21, 1:04am

Tue Sep 21, 12:04am

Mon Sep 20, 11:04pm

Mon Sep 20, 10:04pm

Mon Sep 20, 9:04pm

Mon Sep 20, 8:04pm

Mon Sep 20, 7:04pm

Mon Sep 20, 6:04pm

Mon Sep 20, 5:04pm

Mon Sep 20, 4:04pm

Mon Sep 20, 3:04pm

Mon Sep 20, 2:04pm

Mon Sep 20, 1:04pm

Mon Sep 20, 12:04pm

Mon Sep 20, 11:04am

Mon Sep 20, 10:04am

Mon Sep 20, 9:04am

Mon Sep 20, 7:04am

Mon Sep 20, 6:04am

Mon Sep 20, 5:04am

Mon Sep 20, 4:04am

Mon Sep 20, 3:04am

Mon Sep 20, 2:04am

Mon Sep 20, 1:04am

Mon Sep 20, 12:04am

Sun Sep 19, 11:04pm

Sun Sep 19, 10:04pm

Sun Sep 19, 9:04pm

Sun Sep 19, 8:04pm

Sun Sep 19, 7:04pm

Sun Sep 19, 6:04pm

Sun Sep 19, 5:04pm

Sun Sep 19, 4:04pm

Sun Sep 19, 3:04pm

Sun Sep 19, 2:05pm

Sun Sep 19, 1:04pm

Sun Sep 19, 12:04pm

Sun Sep 19, 11:04am

Sun Sep 19, 10:05am

Sun Sep 19, 9:04am

Sun Sep 19, 8:04am

Sun Sep 19, 7:04am

Sun Sep 19, 6:04am

Sun Sep 19, 5:04am

Sun Sep 19, 4:04am

Sun Sep 19, 3:04am

Sun Sep 19, 2:04am

Sun Sep 19, 1:04am

Sun Sep 19, 12:04am

Sat Sep 18, 11:05pm

Sat Sep 18, 10:04pm

Sat Sep 18, 9:04pm

Sat Sep 18, 8:04pm

Sat Sep 18, 7:04pm

Sat Sep 18, 6:04pm

Sat Sep 18, 5:04pm

Sat Sep 18, 4:04pm

Sat Sep 18, 3:04pm

Sat Sep 18, 2:04pm

Sat Sep 18, 1:04pm

Sat Sep 18, 12:04pm

Sat Sep 18, 11:04am

Sat Sep 18, 10:04am

Sat Sep 18, 9:04am

Sat Sep 18, 8:04am

Sat Sep 18, 7:04am

Sat Sep 18, 6:04am

Sat Sep 18, 5:04am

Sat Sep 18, 4:04am

Sat Sep 18, 3:04am

Sat Sep 18, 2:04am

Sat Sep 18, 1:04am

Sat Sep 18, 12:04am

Fri Sep 17, 11:04pm

Fri Sep 17, 10:04pm

Fri Sep 17, 9:04pm

Fri Sep 17, 8:04pm

Fri Sep 17, 7:04pm

Fri Sep 17, 6:04pm

Fri Sep 17, 5:04pm

Fri Sep 17, 4:04pm

Fri Sep 17, 3:04pm

Fri Sep 17, 2:04pm

Fri Sep 17, 1:04pm

Fri Sep 17, 12:05pm

Fri Sep 17, 11:04am

Fri Sep 17, 10:04am

Fri Sep 17, 9:04am

Fri Sep 17, 8:04am

Fri Sep 17, 7:04am

Fri Sep 17, 6:04am

Fri Sep 17, 5:04am

Fri Sep 17, 4:04am

Fri Sep 17, 3:04am

Fri Sep 17, 2:04am

Fri Sep 17, 1:04am

Fri Sep 17, 12:04am

Thu Sep 16, 11:04pm

Thu Sep 16, 10:04pm

Thu Sep 16, 9:04pm

Thu Sep 16, 8:04pm

Thu Sep 16, 7:04pm

Thu Sep 16, 6:04pm

Thu Sep 16, 5:04pm

Thu Sep 16, 4:04pm

Thu Sep 16, 3:04pm

Thu Sep 16, 2:04pm

Thu Sep 16, 1:05pm

Thu Sep 16, 12:04pm

Thu Sep 16, 11:05am

Thu Sep 16, 10:05am

Thu Sep 16, 9:04am

Thu Sep 16, 8:04am

Thu Sep 16, 7:04am

Thu Sep 16, 6:04am

Thu Sep 16, 5:04am

Thu Sep 16, 4:04am

Thu Sep 16, 3:04am

Thu Sep 16, 1:04am

Thu Sep 16, 12:04am

Wed Sep 15, 11:04pm

Wed Sep 15, 10:04pm

Wed Sep 15, 9:04pm

Wed Sep 15, 8:04pm

Wed Sep 15, 7:04pm

Wed Sep 15, 6:04pm

Wed Sep 15, 5:05pm

Wed Sep 15, 4:04pm

Wed Sep 15, 3:04pm

Meta data:

ID: fab17fd4-3f7d-42d5-bbcc-ca89d742771f
Link: https://api.weather.gov/products/fab17fd4-3f7d-42d5-bbcc-ca89d742771f